Location: Blangy-Tronville
(49.8790°N, 2.4226°E)
Time: 21:01:19
(UTC+00:00)

Cosmos 2278 Rocket - Pass Details

Date: 18 November 2025
Orbit: 841 x 843 km, 71.0° (Epoch: 05 December)

Event Time Altitude Azimuth Distance (km) Brightness Sun altitude
Rises 19:20:41 0° 251° (WSW) 3,394 6.2 -31.5°
Reaches altitude 10° 19:23:35 10° 265° (W) 2,462 5.4 -32.0°
Maximum altitude 19:28:08 24° 319° (NW) 1,676 4.1 -32.7°
Enters shadow 19:30:22 19° 352° (N) 1,900 4.1 -33.1°
